Current Version              Previous Version:    01  02  03  04  05  06  07  08  09  10  11  12  13  14  15  16  17  18  19  20  21  22  23  24  25  26  27  28  29  30  
   31  32  33  34  35  36  37  38  39  40  41  42  43  44  45  46  47  48  49  50  51  52  53  54  55  56  57  58  59  60  

[Printable]
244
ASUS44 KEWX 211402
RWRTX
SOUTH TEXAS REGIONAL WEATHER ROUNDUP
NATIONAL WEATHER SERVICE AUSTIN/SAN ANTONIO TX
900 AM CDT TUE OCT 21 2014

NOTE: "FAIR" INDICATED FEW OR NO CLOUDS BELOW 12,000 FEET WITH NO
SIGNIFICANT WEATHER AND/OR OBSTRUCTIONS TO VISIBILITY.

* - THESE STATIONS ARE NOT NWS OR FAA STATIONS...AND ARE NOT SUBJECT
    TO NWS AND FAA QUALITY CONTROL.

TXZ171-172-183>190-211500-
TEXAS HILL COUNTRY AND EDWARDS PLATEAU

CITY           SKY/WX    TMP DP  RH WIND       PRES   REMARKS
JUNCTION       MOSUNNY   55  52  89 CALM      30.11R
*LLANO         SUNNY     57  55  94 CALM      30.12S
BURNET         SUNNY     63  58  83 N3        30.12R
*HORSESHOE BAY SUNNY     61  61 100 CALM      30.10R FOG
*KERRVILLE     SUNNY     55  53  94 CALM      30.10R
*FREDERICKSBRG SUNNY     55  53  95 CALM      30.10R
*ROCKSPRINGS   MOSUNNY   61  57  88 E5        30.12R
*BOERNE STAGE  SUNNY     61  59  94 CALM      30.10R
*CASTROVILLE   SUNNY     64  56  76 CALM      30.08R
HONDO          MOSUNNY   63  58  83 NE8       30.09R
*UVALDE        CLOUDY    68  61  77 NE6       30.08R
DEL RIO        CLOUDY    69  62  78 E7        30.05R
LAUGHLIN AFB   CLOUDY    68  62  82 E6        30.06R
CARRIZO SPRGS  MOSUNNY   68  64  88 E6        30.03R
$$

TXZ173-191>194-202-209-217>225-228-211500-
CENTRAL AND SOUTH CENTRAL TEXAS

CITY           SKY/WX    TMP DP  RH WIND       PRES   REMARKS
GEORGETOWN     SUNNY     61  57  88 N5        30.09R
AUSTIN/BERGSTM MOSUNNY   61  59  93 CALM      30.08R
AUSTIN/MABRY   SUNNY     64  61  90 CALM      30.09R
*AUSTIN/EXEC   SUNNY     63  59  88 N6        30.09R
*LAGO VISTA    SUNNY     64  60  85 NE3       30.10R
SAN MARCOS     SUNNY     64  55  72 N5        30.09R
NEW BRAUNFELS  SUNNY     67  62  84 NE5       30.07R
RANDOLPH AFB   SUNNY     66  60  80 NE5       30.08R
PT SAN ANTONIO SUNNY     67  60  77 NE6       30.06R
SAN ANTONIO    MOSUNNY   68  61  78 NE5       30.07R
STINSON FIELD  SUNNY     69  61  75 NE8       30.05R
*PLEASANTON    SUNNY     65  61  85 E5        30.07R
*LA GRANGE     SUNNY     62  59  91 CALM      30.06R
*GIDDINGS      SUNNY     60  58  94 CALM      30.12R
*GONZALES      SUNNY     64  59  82 CALM      30.06R
$$

TXZ163>164-176>182-195>201-210>213-226-227-235-211500-
SOUTHEAST TEXAS

CITY           SKY/WX    TMP DP  RH WIND       PRES   REMARKS
COLLEGE STN    SUNNY     63  56  78 NE5       30.09R
*BRYAN         SUNNY     59  58  96 N3        30.11R
*CALDWELL      SUNNY     57  57 100 N5        30.11R
*CROCKETT      SUNNY     63  61  94 CALM      30.13R
*BRENHAM       SUNNY     60  58  94 CALM      30.08R
HUNTSVILLE     SUNNY     56  54  93 CALM      30.09R
CONROE         SUNNY     62  56  80 CALM      30.08R
HOUSTON BUSH   MOSUNNY   64  56  75 NE6       30.06R
HOUSTON HOBBY  SUNNY     66  58  75 NE7       30.05R
*HOUSTON SW AP SUNNY     59  55  87 N3        30.06R
PEARLAND       SUNNY     67  61  81 NE6       30.06R
HOUSTON HOOKS  SUNNY     64  55  72 NE3       30.07R
ELLINGTON FLD  SUNNY     63  59  88 NE5       30.06R
SUGAR LAND     SUNNY     66  57  72 NE6       30.06R
*HOUSTON EXEC  SUNNY     61 N/A N/A NE3       30.08R
*CLEVELAND MUN NOT AVBL
*WHARTON       SUNNY     63  59  86 NE3       30.06R
*COLUMBUS      FAIR      63  58  86 CALM      30.07R
$$

TXZ214>216-236>238-211500-
THE UPPER TEXAS COAST

CITY           SKY/WX    TMP DP  RH WIND       PRES   REMARKS
*ORANGE        SUNNY     60  60 100 CALM      30.08R
PORT ARTHUR    SUNNY     66  57  72 NE7       30.05R
GALVESTON      SUNNY     71  65  81 NE12      30.04R
ANGLETON       SUNNY     67  62  84 NE7       30.04R
*BAY CITY        N/A     67  64  90 NE7       30.04R
PALACIOS       SUNNY     67  63  87 NE7       30.03R
$$

TXZ229>234-239>247-211500-
TEXAS COASTAL BEND AND RIO GRANDE PLAINS

CITY           SKY/WX    TMP DP  RH WIND       PRES   REMARKS
VICTORIA       SUNNY     67  62  84 NE8       30.05R
*BEEVILLE      MOSUNNY   69  63  83 NE9       30.03R
ROCKPORT       SUNNY     72  66  81 NE9       30.01R
*PORT ARANSAS  CLOUDY    74  69  85 NE10      29.99R
*PORT LAVACA   SUNNY     68  62  82 NE10      30.03R
*INGLESIDE     SUNNY     72  68  88 NE12      29.99S
CORPUS CHRISTI MOSUNNY   72  67  84 NE14      30.00R
CORPUS NAS     MOSUNNY   73  72  96 NE15      29.99R
*ROBSTOWN      CLOUDY    70  68  92 NE8       30.00R FOG
ALICE          CLOUDY    69  66  90 MISG      30.01R FOG
KINGSVILLE NAS PTSUNNY   73  71  93 N10       30.00R FOG
COTULLA        SUNNY     70  63  78 E8        30.04R
*FAITH RANCH   MOSUNNY   68  66  94 E9        30.02S
LAREDO         PTSUNNY   71  69  93 NE9       30.04R
$$

TXZ248>255-211500-
DEEP SOUTH TEXAS

CITY           SKY/WX    TMP DP  RH WIND       PRES   REMARKS
BROWNSVILLE    SUNNY     78  72  81 N3        29.94R
PORT ISABEL    SUNNY     81  71  71 E9        29.94R
*SOUTH PADRE   MOSUNNY   82  72  69 E9        29.93R
HARLINGEN      CLOUDY    74  73  97 CALM      29.95R
*HEBBRONVILLE  PTSUNNY   70  67  90 NE8       30.03R
MCALLEN        MOSUNNY   73  70  90 N6        29.98R
*WESLACO       MOSUNNY   73  69  88 N5        29.96R
FALFURRIAS     CLOUDY    70  68  93 N5        29.99R
EDINBURG       PTSUNNY   74  71  88 N8        29.98R
*ZAPATA        CLOUDY    72  71  97 NE5       30.00R FOG
$$

TXZ213>215-236>238-242>244-246-247-251-254-255-211500-
CMAN STATIONS

STATION/POSITION TIME  TEMP    WIND        PRES    WAVE
                       AIR SEA DIR/SP/G            HT/PER
                 (UTC) (F)     (DEG/KT/KT) (MB)    (FT/S)
SABINE PASS      1300   63 76   40/  8/ 10 1017.6
SEA RIM ST PARK  1300   62      50/  7/  8 1017.8
NORTH JETTY/GLS  1300   71 75   70/ 14/ 16   N/A
EAGLE POINT      1300   69 73   80/ 14/ 16 1017.2
MORGANS POINT    1300   65      80/  6/  9 1017.3
MISSION/ARANSAS  1300           30/ 11     1017.0
PORT O`CONNOR    1300           40/ 14/ 16   N/A
PORT ARANSAS     1300   78 78   50/ 14/ 15 1015.4
MALAQUITE BEACH  1300   78 77   50/ 15/ 19 1014.3
BAFFIN BAY       1300   77 81   90/ 11/ 13 1014.5
PORT ISABEL      1300   81 79   70/ 11/ 15 1013.7
$$

GMZ080-GMZ150>470-211500-
OFFSHORE BUOY REPORTS

STATION/POSITION TIME  TEMP    WIND        PRES    WAVE
                       AIR SEA DIR/SP/G            HT/PER
                 (UTC) (F)     (DEG/KT/KT) (MB)    (FT/S)
20 E GALVESTON   1400   74 78   70/ 14/ 16 1016.6    3/ 5
90 E PT ARANSAS  1400   78 81   70/ 16/ 19 1015.6    4/ 6
35 NE PT MANSFLD 1300   80 81   70/ 17/ 23 1013.1    6/ 7
200 E PT ISABEL  1300   80 81   80/ 17/ 21 1012.5    5/ 6
$$